GW3397 Weather Reports


Display with metric or nautical units.
time (UTC)temp
F
wind
direction
speed
MPH
gust
MPH
rain 1hr
in
rain 24hr
in
rain mn
in
humidity
%
barometer
mb
20260509200801 51 89 3.0 5.0 0.00 0.23 0.23 98 1011.8
20260509200256 51 134 3.0 5.0 0.00 0.23 0.23 98 1011.8
20260509195752 50 36 2.0 3.0 0.00 0.23 0.23 98 1012.0
20260509195247 50 74 3.0 5.0 0.00 0.23 0.23 97 1012.0
20260509194742 50 110 2.0 3.0 0.00 0.23 0.23 97 1012.3
20260509194239 50 59 3.0 3.0 0.00 0.23 0.23 97 1012.1
20260509193736 50 58 1.0 5.0 0.07 0.23 0.23 97 1012.4
20260509193235 50 101 4.0 5.0 0.00 0.22 0.22 97 1012.3
20260509192732 50 89 3.0 5.0 0.00 0.22 0.22 97 1012.3
20260509192227 50 61 3.0 5.0 0.00 0.22 0.22 97 1012.6
20260509191723 50 67 3.0 5.0 0.00 0.22 0.22 97 1012.5
20260509191219 50 68 3.0 3.0 0.00 0.22 0.22 97 1012.5
20260509190715 50 50 2.0 7.0 0.00 0.22 0.22 97 1012.4
20260509190213 51 86 1.0 3.0 0.00 0.22 0.22 97 1012.3
20260509185710 50 110 4.0 6.0 0.00 0.22 0.22 97 1012.5
20260509185206 50 126 5.0 7.0 0.00 0.22 0.22 97 1012.5
20260509184704 51 53 1.0 7.0 0.00 0.22 0.22 97 1012.3
20260509184201 50 126 4.0 6.0 0.00 0.22 0.22 97 1012.4
20260509183657 50 132 7.0 8.0 0.00 0.22 0.22 97 1012.6
20260509183152 50 110 4.0 8.0 0.00 0.22 0.22 97 1012.5
20260509182648 50 112 3.0 7.0 0.00 0.22 0.22 97 1012.7
20260509182146 50 98 2.0 6.0 0.00 0.22 0.22 97 1012.5
20260509181643 50 114 4.0 9.0 0.00 0.22 0.22 97 1012.3
20260509181141 49 74 3.0 6.0 0.00 0.22 0.22 97 1012.6
20260509180637 49 107 6.0 7.0 0.00 0.22 0.22 97 1012.6
20260509180134 49 102 5.0 8.0 0.00 0.22 0.22 97 1012.6
20260509175629 49 133 4.0 8.0 0.00 0.22 0.22 97 1012.3
20260509175127 49 136 6.0 8.0 0.00 0.22 0.22 97 1012.6
20260509174622 49 101 4.0 7.0 0.00 0.22 0.22 97 1012.6
20260509174118 48 127 4.0 7.0 0.00 0.22 0.22 97 1012.5
20260509173614 49 111 4.0 5.0 0.00 0.22 0.22 97 1012.7
20260509173109 48 78 4.0 8.0 0.00 0.22 0.22 97 1012.7
20260509172607 48 59 6.0 8.0 0.00 0.22 0.22 97 1012.6
20260509172103 48 59 4.0 8.0 0.00 0.22 0.22 97 1012.7
20260509171558 48 95 6.0 7.0 0.00 0.22 0.22 97 1012.9
20260509171054 48 120 2.0 6.0 0.00 0.22 0.22 97 1012.8
20260509170551 48 85 4.0 7.0 0.05 0.22 0.22 97 1012.7
20260509170046 47 83 4.0 6.0 0.05 0.22 0.22 97 1013.0
20260509165545 47 60 1.0 5.0 0.00 0.21 0.21 97 1013.1
20260509165040 47 91 3.0 5.0 0.00 0.21 0.21 97 1013.1
20260509164537 47 97 3.0 5.0 0.07 0.21 0.21 97 1013.0
20260509164032 47 113 3.0 6.0 0.07 0.21 0.21 97 1013.2
20260509163531 47 90 5.0 6.0 0.00 0.20 0.20 97 1013.2
20260509163026 47 105 6.0 8.0 0.00 0.20 0.20 97 1013.3
20260509162524 47 48 4.0 7.0 0.00 0.20 0.20 97 1013.3
20260509162019 47 81 2.0 5.0 0.05 0.20 0.20 97 1013.6
20260509161516 47 79 2.0 2.0 0.00 0.19 0.19 97 1013.5
20260509161011 46 60 3.0 5.0 0.00 0.19 0.19 97 1013.7
20260509160507 46 110 5.0 8.0 0.00 0.19 0.19 97 1014.0
20260509160003 46 110 4.0 7.0 0.00 0.19 0.19 97 1013.7
20260509155459 46 100 8.0 9.0 0.00 0.19 0.19 97 1014.1
20260509154955 46 125 7.0 11.0 0.00 0.19 0.19 96 1014.1
20260509154451 46 104 6.0 10.0 0.07 0.19 0.19 97 1014.1
20260509153949 45 134 4.0 6.0 0.07 0.19 0.19 97 1014.2
20260509153446 45 88 4.0 10.0 0.00 0.18 0.18 97 1014.3
20260509152942 45 118 5.0 6.0 0.00 0.18 0.18 97 1014.3
20260509152438 45 113 3.0 6.0 0.05 0.18 0.18 97 1014.6
20260509151930 45 96 4.0 5.0 0.05 0.18 0.18 97 1014.5
20260509151426 44 129 4.0 7.0 0.00 0.17 0.17 96 1014.8
20260509150925 44 125 5.0 7.0 0.07 0.17 0.17 96 1014.7
20260509150421 44 45 2.0 6.0 0.07 0.17 0.17 96 1014.7
20260509145920 44 123 1.0 7.0 0.00 0.16 0.16 96 1014.7
20260509145420 44 71 5.0 6.0 0.05 0.16 0.16 96 1014.6
20260509144915 44 49 3.0 6.0 0.05 0.16 0.16 96 1014.6
20260509144412 44 143 3.0 3.0 0.07 0.15 0.15 96 1014.8
20260509143909 43 80 3.0 5.0 0.07 0.15 0.15 96 1015.0
20260509143407 43 86 1.0 5.0 0.05 0.14 0.14 96 1014.7
20260509142903 43 50 1.0 5.0 0.05 0.14 0.14 96 1014.7
20260509142400 43 77 1.0 3.0 0.07 0.13 0.13 96 1015.0
20260509141855 43 114 3.0 5.0 0.05 0.12 0.12 96 1014.8
20260509141352 43 95 0.0 2.0 0.12 0.12 0.12 96 1014.9
20260509140849 43 107 3.0 5.0 0.07 0.11 0.11 95 1014.8
20260509140346 43 111 5.0 6.0 0.07 0.10 0.10 95 1015.0
20260509135844 42 103 3.0 3.0 0.07 0.10 0.10 95 1014.9
20260509135341 42 95 4.0 5.0 0.00 0.09 0.09 95 1014.9
20260509134838 42 109 2.0 2.0 0.05 0.09 0.09 95 1015.0
20260509134335 42 97 3.0 3.0 0.07 0.08 0.08 95 1014.7
20260509133832 42 83 2.0 3.0 0.07 0.08 0.08 94 1014.6
20260509133329 42 25 2.0 3.0 0.05 0.07 0.07 94 1014.6
20260509132828 43 49 1.0 5.0 0.05 0.07 0.07 94 1014.8
20260509132326 43 96 5.0 7.0 0.07 0.06 0.06 94 1014.6
20260509131822 42 140 5.0 6.0 0.07 0.06 0.06 94 1014.8
20260509131319 42 92 1.0 2.0 0.00 0.05 0.05 94 1015.0
20260509130815 42 147 3.0 5.0 0.05 0.05 0.05 93 1014.9
20260509130311 42 108 3.0 5.0 0.00 0.04 0.04 93 1015.0
20260509125808 42 121 4.0 5.0 0.07 0.04 0.04 93 1015.1
20260509125307 42 34 2.0 3.0 0.07 0.04 0.04 93 1015.1
20260509124801 42 94 1.0 2.0 0.00 0.03 0.03 93 1015.1
20260509124257 42 125 5.0 5.0 0.00 0.03 0.03 93 1014.9
20260509123756 42 108 3.0 3.0 0.05 0.03 0.03 93 1015.2
20260509123253 42 134 3.0 5.0 0.05 0.03 0.03 92 1015.2
20260509122748 42 126 2.0 3.0 0.00 0.02 0.02 93 1015.1
20260509122246 42 126 1.0 3.0 0.00 0.02 0.02 93 1015.2
20260509121742 42 131 3.0 3.0 0.07 0.02 0.02 92 1015.3
20260509121239 41 140 3.0 3.0 0.07 0.02 0.02 92 1015.3
20260509120738 41 96 3.0 3.0 0.00 0.01 0.01 92 1015.4
20260509120235 41 131 2.0 3.0 0.05 0.01 0.01 92 1015.1
20260509115733 41 82 0.0 3.0 0.05 0.01 0.01 91 1015.4
20260509115230 41 78 1.0 2.0 0.00 0.00 0.00 91 1015.3
20260509114728 41 109 3.0 3.0 0.00 0.00 0.00 91 1015.5
20260509114226 41 132 2.0 2.0 0.00 0.00 0.00 91 1015.3
20260509113725 41 63 2.0 5.0 0.00 0.00 0.00 91 1015.3
20260509113222 41 78 1.0 2.0 0.00 0.00 0.00 91 1015.2
20260509112718 41 86 1.0 2.0 0.00 0.00 0.00 91 1015.2
20260509112216 40 88 2.0 5.0 0.00 0.00 0.00 90 1015.3
20260509111712 40 84 3.0 5.0 0.00 0.00 0.00 90 1015.3
20260509111209 41 124 2.0 5.0 0.00 0.00 0.00 90 1015.3
20260509110707 41 87 2.0 5.0 0.00 0.00 0.00 89 1015.2
20260509110203 41 72 3.0 6.0 0.00 0.00 0.00 89 1015.2
20260509105701 41 61 0.0 3.0 0.00 0.00 0.00 90 1015.0
20260509105158 41 88 1.0 3.0 0.00 0.00 0.00 90 1015.0
20260509104655 40 80 1.0 5.0 0.00 0.00 0.00 90 1014.8
20260509104152 40 124 2.0 3.0 0.00 0.00 0.00 90 1014.8
20260509103650 40 78 3.0 5.0 0.00 0.00 0.00 90 1015.0
20260509103148 40 47 2.0 3.0 0.00 0.00 0.00 90 1015.0
20260509102646 40 75 1.0 5.0 0.00 0.00 0.00 90 1014.9
20260509102142 40 79 2.0 2.0 0.00 0.00 0.00 90 1014.8
20260509101638 40 32 0.0 1.0 0.00 0.00 0.00 90 1014.6
20260509101135 40 142 2.0 3.0 0.00 0.00 0.00 90 1014.9
20260509100633 39 108 1.0 2.0 0.00 0.00 0.00 90 1014.7
20260509100130 39 36 0.0 3.0 0.00 0.00 0.00 91 1014.7
20260509095626 39 31 0.0 3.0 0.00 0.00 0.00 91 1014.7
20260509095124 39 83 2.0 2.0 0.00 0.00 0.00 91 1014.8
20260509094620 39 78 2.0 3.0 0.00 0.00 0.00 91 1015.0
20260509094117 39 116 2.0 3.0 0.00 0.00 0.00 91 1015.0
20260509093616 38 37 0.0 1.0 0.00 0.00 0.00 91 1015.1
20260509093112 38 44 1.0 2.0 0.00 0.00 0.00 91 1015.2
20260509092610 38 103 0.0 3.0 0.00 0.00 0.00 91 1015.1
20260509092108 38 53 1.0 3.0 0.00 0.00 0.00 91 1015.1
20260509091606 38 115 3.0 3.0 0.00 0.00 0.00 92 1015.0
20260509091102 37 71 2.0 5.0 0.00 0.00 0.00 92 1015.3
20260509090600 37 95 2.0 3.0 0.00 0.00 0.00 93 1015.3
20260509090057 37 345 0.0 0.0 0.00 0.00 0.00 93 1015.3
20260509085554 37 324 0.0 0.0 0.00 0.00 0.00 93 1015.3
20260509085050 37 345 0.0 1.0 0.00 0.00 0.00 93 1015.4
20260509084547 36 24 0.0 1.0 0.00 0.00 0.00 93 1015.3
20260509084044 36 340 0.0 0.0 0.00 0.00 0.00 92 1015.5
20260509083542 36 346 0.0 0.0 0.00 0.00 0.00 92 1015.7
20260509083038 36 30 0.0 1.0 0.00 0.00 0.00 92 1015.6
20260509082536 36 12 0.0 1.0 0.00 0.00 0.00 92 1015.5
20260509082033 36 3 0.0 1.0 0.00 0.00 0.00 92 1015.8
20260509081530 36 347 1.0 1.0 0.00 0.00 0.00 92 1015.7
20260509081027 35 334 1.0 1.0 0.00 0.00 0.00 92 1015.5
20260509080525 35 356 0.0 1.0 0.00 0.00 0.00 92 1015.7
20260509080023 35 1 0.0 0.0 0.00 0.00 0.00 92 1015.4
20260509075520 35 341 0.0 1.0 0.00 0.00 0.00 92 1015.2
20260509075018 35 32 2.0 2.0 0.00 0.00 0.00 92 1015.2
20260509074514 35 109 1.0 1.0 0.00 0.00 0.00 92 1015.3
20260509074011 35 167 2.0 2.0 0.00 0.00 0.00 92 1015.0
20260509073508 34 254 1.0 1.0 0.00 0.00 0.00 92 1015.2
20260509073004 34 347 1.0 1.0 0.00 0.00 0.00 92 1015.3
20260509072501 35 286 0.0 1.0 0.00 0.00 0.00 92 1015.3
20260509071957 34 186 2.0 2.0 0.00 0.00 0.00 92 1015.3
20260509071454 34 340 0.0 0.0 0.00 0.00 0.00 91 1015.2
20260509070952 35 303 0.0 0.0 0.00 0.00 0.00 91 1015.2
20260509070449 35 156 2.0 3.0 0.00 0.00 0.00 91 1015.4
20260509065944 34 256 1.0 1.0 0.00 0.00 0.00 91 1015.5
20260509065440 34 296 1.0 1.0 0.00 0.00 0.00 91 1015.5
20260509064936 34 153 2.0 2.0 0.00 0.00 0.00 92 1015.5
20260509064434 34 310 0.0 0.0 0.00 0.00 0.00 91 1015.6
20260509063932 34 2 0.0 0.0 0.00 0.00 0.00 91 1015.6
20260509063427 35 328 0.0 0.0 0.00 0.00 0.00 91 1015.6
20260509062924 34 312 0.0 0.0 0.00 0.00 0.00 91 1015.7
20260509062422 35 294 0.0 0.0 0.00 0.00 0.00 91 1015.6
20260509061919 35 319 0.0 0.0 0.00 0.00 0.00 90 1016.0
20260509061417 35 226 0.0 0.0 0.00 0.00 0.00 90 1015.6
20260509060913 35 272 0.0 0.0 0.00 0.00 0.00 91 1015.7
20260509060410 35 293 0.0 0.0 0.00 0.00 0.00 91 1015.6
20260509055900 35 315 0.0 0.0 0.00 0.00 0.00 91 1015.8
20260509055356 35 308 0.0 0.0 0.00 0.00 0.00 91 1015.8
20260509054853 35 293 0.0 0.0 0.00 0.00 0.00 90 1016.0
20260509054350 35 341 0.0 0.0 0.00 0.00 0.00 90 1016.1
20260509053848 36 306 0.0 0.0 0.00 0.00 0.00 90 1016.3
20260509053345 36 319 0.0 0.0 0.00 0.00 0.00 89 1016.0
20260509052843 37 295 0.0 0.0 0.00 0.00 0.00 89 1016.2
20260509052340 37 330 0.0 0.0 0.00 0.00 0.00 88 1016.3
20260509051838 37 302 0.0 0.0 0.00 0.00 0.00 86 1016.2
20260509051336 38 351 0.0 1.0 0.00 0.00 0.00 86 1016.1
20260509050832 38 341 0.0 1.0 0.00 0.00 0.00 86 1016.2
20260509050329 38 346 1.0 1.0 0.00 0.00 0.00 86 1016.3
20260509045826 39 336 0.0 0.0 0.00 0.00 0.00 86 1016.3
20260509045323 39 336 0.0 0.0 0.00 0.00 0.00 86 1016.2
20260509044820 39 336 0.0 0.0 0.00 0.00 0.00 85 1016.2
20260509044318 39 357 0.0 0.0 0.00 0.00 0.00 85 1016.1
20260509043814 39 346 1.0 1.0 0.00 0.00 0.00 84 1016.2
20260509043310 38 267 0.0 1.0 0.00 0.00 0.00 85 1016.2
20260509042806 38 224 1.0 2.0 0.00 0.00 0.00 85 1016.3
20260509042306 38 320 1.0 1.0 0.00 0.00 0.00 84 1016.3
20260509041759 37 296 0.0 1.0 0.00 0.00 0.00 85 1016.3
20260509041256 37 340 0.0 0.0 0.00 0.00 0.00 84 1016.3
20260509040755 38 46 0.0 1.0 0.00 0.00 0.00 85 1016.1
20260509040252 38 357 0.0 0.0 0.00 0.00 0.00 83 1016.0
20260509035749 38 30 0.0 1.0 0.00 0.03 0.03 82 1016.0
20260509035246 39 65 0.0 0.0 0.00 0.03 0.03 81 1016.1
20260509034742 39 185 1.0 1.0 0.00 0.03 0.03 79 1015.9
20260509034240 38 176 1.0 2.0 0.00 0.03 0.03 82 1015.9
20260509033737 38 67 1.0 1.0 0.00 0.03 0.03 85 1016.0
20260509033234 38 65 0.0 0.0 0.00 0.03 0.03 84 1015.8
20260509032731 38 142 2.0 2.0 0.00 0.03 0.03 85 1015.9
20260509032228 38 331 0.0 0.0 0.00 0.03 0.03 85 1016.0
20260509031725 38 228 0.0 0.0 0.00 0.03 0.03 84 1016.3
20260509031223 38 236 0.0 0.0 0.00 0.03 0.03 84 1015.9
20260509030721 37 343 0.0 0.0 0.00 0.03 0.03 85 1015.8
20260509030218 38 23 0.0 0.0 0.00 0.03 0.03 84 1015.9
20260509025714 38 353 0.0 0.0 0.00 0.03 0.03 83 1016.1
20260509025210 38 341 0.0 0.0 0.00 0.03 0.03 81 1015.9
20260509024705 39 336 0.0 0.0 0.00 0.03 0.03 80 1015.9
20260509024201 39 328 0.0 0.0 0.00 0.03 0.03 78 1015.9
20260509023659 40 329 0.0 0.0 0.00 0.03 0.03 75 1016.1
20260509023156 42 322 0.0 1.0 0.00 0.03 0.03 72 1016.0
20260509022652 43 248 1.0 1.0 0.00 0.03 0.03 69 1015.8
20260509022150 44 193 3.0 5.0 0.00 0.03 0.03 67 1016.0
20260509021646 44 203 2.0 2.0 0.00 0.03 0.03 68 1016.1
20260509021144 44 220 1.0 3.0 0.00 0.03 0.03 67 1015.9
20260509020642 44 216 2.0 3.0 0.00 0.03 0.03 66 1016.0
20260509020139 44 203 2.0 2.0 0.00 0.03 0.03 67 1015.9
20260509015637 43 205 2.0 3.0 0.00 0.03 0.03 68 1015.8
20260509015135 42 210 3.0 3.0 0.00 0.03 0.03 69 1015.7
20260509014631 40 227 2.0 2.0 0.00 0.03 0.03 74 1015.7
20260509014127 40 324 0.0 0.0 0.00 0.03 0.03 75 1015.5
20260509013625 41 326 0.0 0.0 0.00 0.03 0.03 73 1015.6
20260509013120 41 308 0.0 0.0 0.00 0.03 0.03 72 1015.7
20260509012617 41 311 0.0 0.0 0.00 0.03 0.03 70 1015.6
20260509012114 42 310 0.0 0.0 0.00 0.03 0.03 70 1015.4
20260509011612 43 302 0.0 0.0 0.00 0.03 0.03 68 1015.3
20260509011109 43 272 0.0 0.0 0.00 0.03 0.03 67 1015.4
20260509010607 44 284 0.0 0.0 0.00 0.03 0.03 65 1015.3
20260509005601 44 303 0.0 0.0 0.00 0.03 0.03 65 1015.2
20260509005056 44 313 0.0 0.0 0.00 0.03 0.03 65 1015.0
20260509004553 44 257 0.0 0.0 0.00 0.03 0.03 64 1014.8
20260509004050 45 280 0.0 0.0 0.00 0.03 0.03 63 1014.9
20260509003548 45 293 0.0 0.0 0.00 0.03 0.03 64 1014.8
20260509003045 46 296 0.0 0.0 0.00 0.03 0.03 62 1014.9
20260509002543 47 285 0.0 0.0 0.00 0.03 0.03 59 1014.6
20260509002040 47 285 0.0 0.0 0.00 0.03 0.03 58 1014.7
20260509001537 47 296 0.0 0.0 0.00 0.03 0.03 56 1014.4
20260509001033 47 280 0.0 0.0 0.00 0.03 0.03 57 1014.6
20260509000532 48 322 0.0 0.0 0.00 0.03 0.03 57 1014.6
20260509000027 48 311 0.0 0.0 0.00 0.03 0.03 56 1014.4
20260508235525 49 321 0.0 0.0 0.00 0.03 0.03 55 1014.2
20260508235021 50 322 0.0 1.0 0.00 0.03 0.03 54 1014.4
20260508234519 51 280 1.0 2.0 0.00 0.03 0.03 53 1014.2
20260508234015 51 303 5.0 6.0 0.00 0.03 0.03 51 1014.1
20260508233515 51 323 2.0 5.0 0.00 0.03 0.03 52 1014.2
20260508233012 51 303 6.0 9.0 0.00 0.03 0.03 49 1014.4
20260508232509 52 301 2.0 6.0 0.00 0.03 0.03 51 1014.3
20260508232006 52 296 5.0 7.0 0.00 0.03 0.03 48 1014.2
20260508231503 52 297 5.0 8.0 0.00 0.03 0.03 48 1014.2
20260508231000 52 298 5.0 9.0 0.00 0.03 0.03 49 1014.3
20260508230456 53 321 4.0 7.0 0.00 0.03 0.03 50 1014.3
20260508225953 53 297 3.0 7.0 0.00 0.03 0.03 49 1014.3
20260508225451 53 260 3.0 6.0 0.00 0.03 0.03 50 1014.3
20260508224947 53 324 4.0 6.0 0.00 0.03 0.03 48 1014.4
20260508224445 53 275 5.0 8.0 0.00 0.03 0.03 48 1014.3
20260508223942 53 306 8.0 9.0 0.00 0.03 0.03 48 1014.1
20260508223440 53 317 5.0 8.0 0.00 0.03 0.03 48 1014.3
20260508222937 54 293 12.0 15.0 0.00 0.03 0.03 45 1014.2
20260508222434 53 286 4.0 11.0 0.00 0.03 0.03 46 1014.2
20260508221931 53 312 4.0 11.0 0.00 0.03 0.03 53 1014.3
20260508221427 53 297 6.0 8.0 0.00 0.03 0.03 52 1014.2
20260508220923 53 314 3.0 14.0 0.00 0.03 0.03 46 1014.0
20260508220420 54 284 3.0 7.0 0.00 0.03 0.03 55 1014.1
20260508215916 53 271 3.0 8.0 0.00 0.03 0.03 54 1014.2
20260508215413 53 302 4.0 6.0 0.00 0.03 0.03 56 1014.1
20260508214910 53 261 5.0 7.0 0.00 0.03 0.03 57 1014.2
20260508214407 51 294 7.0 11.0 0.00 0.03 0.03 56 1014.4
20260508213903 51 314 7.0 10.0 0.00 0.03 0.03 58 1014.2
20260508213401 52 321 8.0 10.0 0.00 0.03 0.03 57 1014.2
20260508212856 51 297 5.0 10.0 0.00 0.03 0.03 60 1014.4
20260508212353 51 289 3.0 9.0 0.00 0.03 0.03 58 1014.2
20260508211849 52 246 6.0 8.0 0.00 0.03 0.03 58 1014.3
20260508211344 53 225 6.0 9.0 0.00 0.03 0.03 60 1014.1
20260508210842 54 316 5.0 14.0 0.00 0.03 0.03 57 1014.2
20260508210339 54 274 5.0 13.0 0.00 0.03 0.03 60 1014.2
20260508205835 53 277 7.0 15.0 0.00 0.03 0.03 59 1014.1
20260508205332 53 291 7.0 10.0 0.00 0.03 0.03 61 1014.2
20260508204828 53 309 5.0 10.0 0.00 0.03 0.03 60 1014.2
20260508204325 53 343 3.0 7.0 0.00 0.03 0.03 61 1014.2
20260508203821 54 300 3.0 8.0 0.00 0.03 0.03 59 1014.3
20260508203317 53 278 4.0 10.0 0.00 0.03 0.03 59 1014.2
20260508202813 52 258 6.0 15.0 0.00 0.03 0.03 59 1014.2
20260508202311 52 279 7.0 9.0 0.00 0.03 0.03 60 1014.4
20260508201808 53 286 9.0 14.0 0.00 0.03 0.03 61 1014.5
20260508201304 51 294 6.0 8.0 0.00 0.03 0.03 64 1014.2